Regional Weather Roundup
Issued by NWS

Home | Current Version | Previous Version | Graphics & Text | Print | Product List | Glossary On
Versions: 1 2 3 4 5 6 7 8 9 10 11 12 13 14 15 16 17 18 19 20 21 22 23 24 25 26 27 28 29 30 31 32 33 34 35 36 37 38 39 40 41 42 43 44 45 46 47 48 49 50
219
ASUS43 KOAX 170702
RWRNE

WEATHER ROUNDUP FOR NEBRASKA
NATIONAL WEATHER SERVICE OMAHA NE
100 AM CST TUE JAN 17 2017

NOTES: SATELLITE DATA IS BEING USED TO AUGMENT CLOUD COVER ABOVE
       12000 FEET.
       "FAIR" INDICATES FEW OR NO CLOUDS BELOW 12,000 FEET WITH NO
       SIGNIFICANT WEATHER AND/OR OBSTRUCTIONS TO VISIBILITY.

  * THESE STATIONS DO NOT REPORT WEATHER SUCH AS RAIN...SNOW OR FOG.

NEZ001>004-019>022-054>056-170800-
NEBRASKA PANHANDLE

CITY           SKY/WX    TMP DP  RH WIND       PRES   REMARKS
SCOTTSBLUFF    CLEAR     20  14  77 NW6       30.09F WCI  12
ALLIANCE       CLOUDY    17  12  80 NW5       30.05S WCI  10
CHADRON        CLOUDY    15   9  76 CALM      30.08F
KIMBALL        CLOUDY    19  15  85 W8        30.07F WCI   9
SIDNEY         CLOUDY    21  14  74 W12       30.07F WCI   9
$$

NEZ057>060-069>072-079>082-170800-
SOUTHWEST NEBRASKA

CITY           SKY/WX    TMP DP  RH WIND       PRES   REMARKS
NORTH PLATTE   CLOUDY    22  17  81 NW6       30.06S WCI  14
IMPERIAL       CLEAR     28  21  75 W7        30.08R WCI  21
LEXINGTON      CLEAR     28  22  81 W8        30.05S WCI  19
MCCOOK         CLEAR     30  24  78 W8        30.07S WCI  22
OGALLALA       CLOUDY    26  21  83 SW6       30.07S WCI  19
$$

NEZ005>010-023>029-035>040-094-170800-
NORTH CENTRAL NEBRASKA

CITY           SKY/WX    TMP DP  RH WIND       PRES   REMARKS
VALENTINE      CLOUDY    18  12  77 W5        30.06S WCI  11
AINSWORTH      CLOUDY    19  16  88 NW8       30.04S WCI   9
BROKEN BOW     CLOUDY    26  18  71 NW15      30.04R WCI  14
O`NEILL        CLOUDY    21  17  83 NW13G18   30.03F WCI   9
ORD            CLOUDY    23  17  78 NW8       30.03R WCI  14
THEDFORD       CLOUDY    26  19  73 NW7       30.05S WCI  19
$$

NEZ041-046>049-061>064-073>077-083>087-170800-
SOUTH CENTRAL NEBRASKA

CITY           SKY/WX    TMP DP  RH WIND       PRES   REMARKS
GRAND ISLAND     N/A     26  24  92 NW13        N/A  WCI  15
AURORA         CLOUDY    29  25  85 N5        30.02R WCI  24
HASTINGS       CLEAR     30  24  78 NW15      30.03R WCI  19
HEBRON         CLOUDY    32  31  94 CALM      30.02R
HOLDREGE       CLEAR     29  24  81 CALM      30.04R
KEARNEY *      CLEAR     28  21  74 CALM      30.03S
YORK           CLOUDY    30  27  86 CALM      30.01R
$$

NEZ011>018-030>034-042>045-170800-
NORTHEAST NEBRASKA

CITY           SKY/WX    TMP DP  RH WIND       PRES   REMARKS
NORFOLK        MOCLDY    22  16  78 NW16      30.00F WCI   8
ALBION         PTCLDY    23  18  83 NW6       30.01S FOG     WCI  15
BLAIR          CLOUDY    32  31  96 NW7       29.95S FOG     WCI  26
FREMONT        CLOUDY    32  30  95 NW14      29.99S WCI  22
TEKAMAH        CLOUDY    32  29  88 NW20      29.98R WCI  20
WAYNE          CLOUDY    24  20  85 NW5       30.00F WCI  18
$$

NEZ050>053-065>068-078-088>093-170800-
SOUTHEAST NEBRASKA

CITY           SKY/WX    TMP DP  RH WIND       PRES   REMARKS
LINCOLN        CLOUDY    33  30  88 NW10      30.00S WCI  25
OMAHA EPPLEY   CLOUDY    33  29  85 NW17      29.97S FOG     WCI  22
BEATRICE       CLOUDY    33  32  96 NW6       30.00R WCI  28
FALLS CITY     CLOUDY    34  32  92 NW9       29.96R WCI  27
NEBRASKA CITY  CLOUDY    32  32 100 NW14      29.96S FOG     WCI  22
PLATTSMOUTH    CLOUDY    33  31  93 NW12      29.96R FOG     WCI  24
$$

NEZ044-045-051>053-067-170800-
OMAHA AREA

CITY           SKY/WX    TMP DP  RH WIND       PRES   REMARKS
OMAHA EPPLEY   CLOUDY    33  29  85 NW17      29.97S FOG     WCI  22
BLAIR          CLOUDY    32  31  96 NW7       29.95S FOG     WCI  26
FREMONT        CLOUDY    32  30  95 NW14      29.99S WCI  22
MILLARD        CLOUDY    35  32  90 NW10      29.97R WCI  27
OFFUTT AFB     CLOUDY    32  32 100 NW8       29.96R WCI  25
PLATTSMOUTH    CLOUDY    33  31  93 NW12      29.96R FOG     WCI  24
WAHOO          CLOUDY    32  30  92 NW12      29.99R WCI  23
$$




USA.gov is the U.S. government's official web portal to all federal, state and local government web resources and services.